Regional Weather Roundup
Issued by NWS

Home | Current Version | Previous Version | Graphics & Text | Print | Product List | Glossary On
Versions: 1 2 3 4 5 6 7 8 9 10 11 12 13 14 15 16 17 18 19 20 21 22 23 24 25 26 27 28 29 30 31 32 33 34 35 36 37 38 39 40 41 42 43 44 45 46 47 48 49 50
000
ASUS43 KIND 251359
RWRIN

WEATHER ROUNDUP FOR INDIANA
NATIONAL WEATHER SERVICE INDIANAPOLIS IN
1000 AM EDT SAT APR 25 2015

NOTE: "FAIR" INDICATES FEW OR NO CLOUDS BELOW 12,000 FEET WITH NO
SIGNIFICANT WEATHER AND/OR OBSTRUCTIONS TO VISIBILITY.

* - STATION DOES NOT REPORT WEATHER SUCH AS PRECIPITATION OR FOG.

+ - STATION NOT QUALITY CONTROLLED BY THE NATIONAL WEATHER SERVICE.
    USE DATA WITH CAUTION...ESPECIALLY DEWPOINT AND RELATIVE
    HUMIDITY OBSERVATIONS.

INZ001>003-010>013-019-020-251500-
NORTHWEST INDIANA

CITY           SKY/WX    TMP DP  RH WIND       PRES   REMARKS
GARY /AIRPORT/ LGT RAIN  45  37  76 E12G23    29.79F
KNOX *+        CLOUDY    41  32  70 E17       29.78F
RENSSELAER +   CLOUDY    43  43 100 E18G24    29.74F

$$

LMZ046-743>745-251500-
SOUTHERN LAKE MICHIGAN

STATION/POSITION TIME  TEMP    WIND        PRES    WAVE
                       AIR SEA DIR/SP/G            HT
                 (UTC) (F)     (DEG/KT/KT) (MB)    (FT)
BURNS HARBOR     1300   44     120/ 13/ 20 1009.5F
MICHIGAN CITY    1300   44     100/ 16/ 24   N/A
5NW MICH CITY    1300   44 44  120/ 16/ 21   N/A     3

$$

INZ004-005-014>016-021>024-251500-
NORTH CENTRAL INDIANA

CITY           SKY/WX    TMP DP  RH WIND       PRES   REMARKS
GOSHEN         LGT RAIN  44  39  82 E10       29.83F
SOUTH BEND     LGT RAIN  44  37  76 SE15      29.82F
WARSAW +       LGT RAIN  43  39  87 E15       29.82F

$$

INZ006>009-017-018-025>027-251500-
NORTHEAST INDIANA

CITY           SKY/WX    TMP DP  RH WIND       PRES   REMARKS
ANGOLA *+      CLOUDY    43  37  81 E10       29.85F
FORT WAYNE     LGT RAIN  42  38  85 E17       29.84F

$$

INZ028-029-035-036-043>045-051>053-251500-
WEST CENTRAL INDIANA

CITY           SKY/WX    TMP DP  RH WIND       PRES   REMARKS
CRAWFORDSVL +  DRIZZLE   47  42  82 E15       29.68F
GREENCASTLE +  CLOUDY    48  39  71 E12G17    29.68F
LAFAYETTE      LGT RAIN  47  44  90 E16       29.71F FOG
TERRE HAUTE    CLOUDY    51  47  86 E9        29.66S

$$

INZ030>032-037>040-046>048-054>057-064-065-251500-
CENTRAL INDIANA

CITY           SKY/WX    TMP DP  RH WIND       PRES   REMARKS
ANDERSON       CLOUDY    46  37  71 E14       29.76F
FRANKFORT +    PTSUNNY   47  47 100 E13G21    29.74S
INDIANAPOLIS   CLOUDY    50  39  66 E17       29.69F
-EAGLE CREEK   CLOUDY    49  41  74 E10       29.70F
KOKOMO *+      CLOUDY    45  39  81 E16       29.76F
MT COMFORT *+  CLOUDY    48  36  61 E15       29.72F
SHELBYVILLE    CLOUDY    51  41  68 E14       29.72F

$$

INZ033-034-041-042-049-050-058-059-251500-
EAST CENTRAL INDIANA

CITY           SKY/WX    TMP DP  RH WIND       PRES   REMARKS
MUNCIE         LGT RAIN  46  42  86 E15       29.76F

$$

INZ060-061-067>069-081>083-085>088-251500-
SOUTHWEST INDIANA

CITY           SKY/WX    TMP DP  RH WIND       PRES   REMARKS
EVANSVILLE     LGT RAIN  55  52  89 SE6       29.65S FOG
HUNTINGBURG *+ CLOUDY    52  46  82 SE10      29.66F

$$

INZ062-063-066-070>080-084-089>092-251500-
SOUTH CENTRAL AND SOUTHEAST INDIANA

CITY           SKY/WX    TMP DP  RH WIND       PRES   REMARKS
BLOOMINGTON    LGT RAIN  50  46  86 SE12      29.67F
MADISON *+     CLOUDY    50  45  81 E8        29.73F

$$




USA.gov is the U.S. government's official web portal to all federal, state and local government web resources and services.